Hourly Data Report for October 24, 2016

All times are specified in Local Standard Time (LST). Add 1 hour to adjust for Daylight Saving Time where and when it is observed.

CHARLOTTETOWN A
PRINCE EDWARD ISLAND

46°17'21.000" N
63°07'09.000" W
48.50 m
8300301
71706
YYG

Download Data

Hourly Data (October 2016)
Hourly Data Report for October 24, 2016
Temp Definition
°C
Dew Point Temp Definition
°C
Rel Hum Definition
%
Wind Dir Definition
10's deg

Wind Spd Definition
km/h
Visibility Definition
km
Stn Press Definition
kPa
Hmdx Definition


Wind Chill Definition


Weather Definition


TIME
00:00 Legend Double Dagger 6.3 -0.2 63 25 28 24.1 98.94     LegendNANA
01:00 Legend Double Dagger 6.1 -0.6 62 25 31 24.1 98.97     LegendNANA
02:00 Legend Double Dagger 5.5 -0.6 65 25 27 24.1 99.03     Mostly Cloudy
03:00 Legend Double Dagger 5.8 -1.4 60 25 30 24.1 99.08     LegendNANA
04:00 Legend Double Dagger 5.1 -1.4 63 26 31 24.1 99.14     LegendNANA
05:00 Legend Double Dagger 5.7 -0.6 64 25 28 24.1 99.18     Mostly Cloudy
06:00 Legend Double Dagger 6.0 -0.9 61 25 31 24.1 99.23     LegendNANA
07:00 Legend Double Dagger 6.6 -1.1 58 25 28 24.1 99.36     LegendNANA
08:00 Legend Double Dagger 7.1 -1.6 54 25 35 24.1 99.44     Mostly Cloudy
09:00 Legend Double Dagger 7.4 -0.5 57 24 30 24.1 99.49     LegendNANA
10:00 Legend Double Dagger 7.8 -0.9 54 25 38 24.1 99.53     LegendNANA
11:00 Legend Double Dagger 8.7 -0.1 54 25 23 24.1 99.50     Mostly Cloudy
12:00 Legend Double Dagger 8.7 -0.3 53 24 26 24.1 99.46     LegendNANA
13:00 Legend Double Dagger 10.5 0.8 51 23 26 24.1 99.43     LegendNANA
14:00 Legend Double Dagger 10.9 0.1 47 25 27 24.1 99.41     Mainly Clear
15:00 Legend Double Dagger 10.1 0.5 51 23 18 24.1 99.41     LegendNANA
16:00 Legend Double Dagger 6.0 2.8 80 29 16 12.9 99.54     Rain Showers
17:00 Legend Double Dagger 5.5 2.2 79 26 23 12.9 99.64     Rain Showers
18:00 Legend Double Dagger 5.6 -0.2 66 25 20 19.3 99.67     Rain Showers
19:00 Legend Double Dagger 4.9 -0.7 67 25 16 24.1 99.72     LegendNANA
20:00 Legend Double Dagger 4.7 -0.7 68 25 15 24.1 99.76     Mainly Clear
21:00 Legend Double Dagger 5.2 -1.3 63 25 16 24.1 99.80     LegendNANA
22:00 Legend Double Dagger 4.9 -1.8 62 25 16 24.1 99.84     LegendNANA
23:00 Legend Double Dagger 4.8 -1.6 63 25 15 24.1 99.88     Mostly Cloudy

Notes on Data Quality.

Legend

  • E = Estimated
  • M = Missing
  • NA = Not Available
  • ‡ = Partner data that is not subject to review by the National Climate Archives
Date modified: